| time (UTC) | temp C | wind direction | speed KPH | gust KPH | rain 1hr cm | rain 24hr cm | rain mn cm | humidity % | barometer mb |
| 20260504070209 | 8 | 211 | 8.0 | 16.1 | 0.00 | 0.00 | 0.00 | 61 | 1009.0 |
| 20260504060203 | 8 | 226 | 4.8 | 9.7 | 0.00 | 0.00 | 0.00 | 60 | 1009.1 |
| 20260504050643 | 8 | 165 | 9.7 | 16.1 | 0.00 | 0.00 | 0.00 | 58 | 1009.1 |
| 20260504050140 | 8 | 167 | 8.0 | 16.1 | 0.00 | 0.00 | 0.00 | 57 | 1009.2 |
| 20260504045641 | 8 | 158 | 8.0 | 14.5 | 0.00 | 0.00 | 0.00 | 57 | 1009.2 |
| 20260504045140 | 9 | 167 | 6.4 | 14.5 | 0.00 | 0.00 | 0.00 | 56 | 1009.2 |
| 20260504044639 | 9 | 161 | 6.4 | 9.7 | 0.00 | 0.00 | 0.00 | 57 | 1009.2 |
| 20260504044137 | 9 | 155 | 6.4 | 12.9 | 0.00 | 0.00 | 0.00 | 56 | 1009.1 |
| 20260504043634 | 9 | 166 | 6.4 | 12.9 | 0.00 | 0.00 | 0.00 | 55 | 1009.1 |
| 20260504043135 | 9 | 160 | 4.8 | 9.7 | 0.00 | 0.00 | 0.00 | 56 | 1009.1 |
| 20260504042634 | 9 | 171 | 4.8 | 9.7 | 0.00 | 0.00 | 0.00 | 57 | 1009.1 |
| 20260504042133 | 9 | 171 | 4.8 | 9.7 | 0.00 | 0.00 | 0.00 | 55 | 1009.1 |
| 20260504041634 | 9 | 173 | 4.8 | 9.7 | 0.00 | 0.00 | 0.00 | 56 | 1009.1 |
| 20260504041131 | 9 | 180 | 3.2 | 8.0 | 0.00 | 0.00 | 0.00 | 56 | 1009.2 |
| 20260504040632 | 9 | 182 | 3.2 | 8.0 | 0.00 | 0.00 | 0.00 | 55 | 1009.1 |
| 20260504040132 | 10 | 188 | 4.8 | 8.0 | 0.00 | 0.00 | 0.00 | 56 | 1009.2 |
| 20260504035633 | 10 | 181 | 3.2 | 8.0 | 0.00 | 0.00 | 0.00 | 57 | 1009.2 |
| 20260504035132 | 10 | 184 | 1.6 | 8.0 | 0.00 | 0.00 | 0.00 | 56 | 1009.2 |
| 20260504034853 | 9 | 238 | 1.6 | 4.8 | 0.00 | 0.00 | 0.00 | 57 | 1009.2 |
| 20260504034349 | 9 | 238 | 0.0 | 4.8 | 0.00 | 0.00 | 0.00 | 57 | 1009.2 |
| 20260504033629 | 9 | 254 | 0.0 | 3.2 | 0.00 | 0.00 | 0.00 | 58 | 1009.2 |
| 20260504033122 | 9 | 254 | 0.0 | 0.0 | 0.00 | 0.00 | 0.00 | 58 | 1009.2 |
| 20260504032617 | 9 | 254 | 0.0 | 0.0 | 0.00 | 0.00 | 0.00 | 60 | 1009.2 |
| 20260504032111 | 9 | 254 | 0.0 | 0.0 | 0.00 | 0.00 | 0.00 | 57 | 1009.3 |
| 20260504031613 | 9 | 254 | 0.0 | 1.6 | 0.00 | 0.00 | 0.00 | 57 | 1009.3 |
| 20260504031110 | 9 | 254 | 0.0 | 3.2 | 0.00 | 0.00 | 0.00 | 56 | 1009.4 |
| 20260504030830 | 9 | 254 | 0.0 | 3.2 | 0.00 | 0.00 | 0.00 | 56 | 1009.4 |
| 20260504025604 | 10 | 254 | 1.6 | 4.8 | 0.00 | 0.00 | 0.00 | 56 | 1009.5 |
| 20260504025104 | 10 | 254 | 1.6 | 4.8 | 0.00 | 0.00 | 0.00 | 56 | 1009.5 |
| 20260504024603 | 10 | 254 | 1.6 | 4.8 | 0.00 | 0.00 | 0.00 | 57 | 1009.6 |
| 20260504024102 | 10 | 254 | 1.6 | 6.4 | 0.00 | 0.00 | 0.00 | 57 | 1009.5 |
| 20260504023559 | 10 | 253 | 3.2 | 6.4 | 0.00 | 0.00 | 0.00 | 57 | 1009.7 |
| 20260504023058 | 10 | 252 | 4.8 | 9.7 | 0.00 | 0.00 | 0.00 | 57 | 1009.7 |
| 20260504022558 | 10 | 252 | 6.4 | 14.5 | 0.00 | 0.00 | 0.00 | 57 | 1009.7 |
| 20260504022059 | 10 | 251 | 8.0 | 14.5 | 0.00 | 0.00 | 0.00 | 57 | 1009.7 |
| 20260504021557 | 10 | 250 | 8.0 | 12.9 | 0.00 | 0.00 | 0.00 | 58 | 1009.7 |
| 20260504021320 | 10 | 257 | 9.7 | 19.3 | 0.00 | 0.00 | 0.00 | 57 | 1009.7 |
| 20260504020558 | 10 | 265 | 12.9 | 19.3 | 0.00 | 0.00 | 0.00 | 57 | 1009.6 |
| 20260504020055 | 10 | 245 | 12.9 | 19.3 | 0.00 | 0.00 | 0.00 | 56 | 1009.7 |
| 20260504015557 | 10 | 257 | 12.9 | 24.1 | 0.00 | 0.00 | 0.00 | 57 | 1009.7 |
| 20260504015056 | 10 | 262 | 16.1 | 27.4 | 0.00 | 0.00 | 0.00 | 56 | 1009.6 |
| 20260504014822 | 10 | 242 | 19.3 | 27.4 | 0.00 | 0.00 | 0.00 | 55 | 1009.6 |
| 20260504014055 | 10 | 221 | 19.3 | 35.4 | 0.00 | 0.00 | 0.00 | 55 | 1009.5 |
| 20260504013553 | 10 | 254 | 17.7 | 35.4 | 0.00 | 0.00 | 0.00 | 56 | 1009.5 |
| 20260504013053 | 10 | 258 | 19.3 | 45.1 | 0.00 | 0.00 | 0.00 | 57 | 1009.7 |
| 20260504012554 | 10 | 261 | 25.7 | 46.7 | 0.00 | 0.00 | 0.00 | 56 | 1009.9 |
| 20260504012053 | 10 | 259 | 22.5 | 41.8 | 0.00 | 0.00 | 0.00 | 55 | 1009.9 |
| 20260504011553 | 10 | 263 | 16.1 | 30.6 | 0.00 | 0.00 | 0.00 | 54 | 1009.6 |
| 20260504011054 | 10 | 278 | 9.7 | 22.5 | 0.00 | 0.00 | 0.00 | 54 | 1009.6 |
| 20260504010821 | 10 | 252 | 8.0 | 17.7 | 0.00 | 0.00 | 0.00 | 54 | 1009.3 |
| 20260504010053 | 10 | 241 | 9.7 | 25.7 | 0.00 | 0.00 | 0.00 | 55 | 1009.3 |
| 20260504005554 | 10 | 224 | 14.5 | 25.7 | 0.00 | 0.00 | 0.00 | 54 | 1009.5 |
| 20260504005546 | 10 | 221 | 17.7 | 25.7 | 0.00 | 0.00 | 0.00 | 54 | 1009.7 |
| 20260504004553 | 10 | 279 | 14.5 | 25.7 | 0.00 | 0.00 | 0.00 | 54 | 1009.2 |
| 20260504004054 | 10 | 283 | 11.3 | 20.9 | 0.00 | 0.00 | 0.00 | 55 | 1009.5 |
| 20260504003553 | 10 | 241 | 12.9 | 24.1 | 0.00 | 0.00 | 0.00 | 54 | 1009.3 |
| 20260504003053 | 10 | 240 | 9.7 | 24.1 | 0.00 | 0.00 | 0.00 | 55 | 1009.3 |
| 20260504002822 | 10 | 266 | 4.8 | 11.3 | 0.00 | 0.00 | 0.00 | 58 | 1009.2 |
| 20260504002056 | 10 | 256 | 6.4 | 14.5 | 0.00 | 0.00 | 0.00 | 59 | 1009.2 |
| 20260504001552 | 10 | 288 | 11.3 | 29.0 | 0.00 | 0.00 | 0.00 | 58 | 1009.1 |
| 20260504001046 | 10 | 314 | 17.7 | 29.0 | 0.00 | 0.00 | 0.00 | 56 | 1009.3 |
| 20260504000538 | 10 | 275 | 22.5 | 38.6 | 0.00 | 0.00 | 0.00 | 56 | 1009.4 |
| 20260504000032 | 10 | 298 | 25.7 | 38.6 | 0.00 | 0.00 | 0.00 | 55 | 1009.4 |
| 20260503235529 | 10 | 256 | 25.7 | 38.6 | 0.00 | 0.00 | 0.00 | 56 | 1009.2 |
| 20260503235027 | 10 | 255 | 27.4 | 46.7 | 0.00 | 0.00 | 0.00 | 59 | 1009.6 |
| 20260503234747 | 10 | 293 | 22.5 | 46.7 | 0.00 | 0.00 | 0.00 | 56 | 1009.5 |
| 20260503234027 | 10 | 294 | 9.7 | 27.4 | 0.00 | 0.00 | 0.00 | 56 | 1009.4 |
| 20260503233751 | 10 | 288 | 4.8 | 12.9 | 0.00 | 0.00 | 0.00 | 57 | 1009.2 |
| 20260503233027 | 10 | 329 | 6.4 | 20.9 | 0.00 | 0.00 | 0.00 | 57 | 1009.0 |
| 20260503232528 | 10 | 294 | 8.0 | 20.9 | 0.00 | 0.00 | 0.00 | 55 | 1008.9 |
| 20260503232027 | 10 | 236 | 6.4 | 12.9 | 0.00 | 0.00 | 0.00 | 55 | 1008.6 |
| 20260503231527 | 10 | 251 | 6.4 | 12.9 | 0.00 | 0.00 | 0.00 | 55 | 1008.6 |
| 20260503231027 | 10 | 249 | 6.4 | 12.9 | 0.00 | 0.00 | 0.00 | 55 | 1008.5 |
| 20260503230748 | 10 | 236 | 8.0 | 12.9 | 0.00 | 0.00 | 0.00 | 54 | 1008.5 |
| 20260503230027 | 10 | 234 | 8.0 | 12.9 | 0.00 | 0.00 | 0.00 | 52 | 1008.4 |
| 20260503225528 | 10 | 263 | 6.4 | 12.9 | 0.00 | 0.00 | 0.00 | 53 | 1008.4 |
| 20260503225027 | 11 | 230 | 6.4 | 12.9 | 0.00 | 0.00 | 0.00 | 53 | 1008.3 |
| 20260503224527 | 11 | 252 | 4.8 | 9.7 | 0.00 | 0.00 | 0.00 | 57 | 1008.4 |
| 20260503224027 | 11 | 247 | 8.0 | 14.5 | 0.00 | 0.00 | 0.00 | 56 | 1008.4 |
| 20260503223526 | 11 | 261 | 9.7 | 14.5 | 0.00 | 0.00 | 0.00 | 55 | 1008.3 |
| 20260503223026 | 11 | 263 | 8.0 | 12.9 | 0.00 | 0.00 | 0.00 | 53 | 1008.4 |
| 20260503223006 | 11 | 254 | 9.7 | 14.5 | 0.00 | 0.00 | 0.00 | 52 | 1008.4 |
| 20260503222014 | 11 | 278 | 12.9 | 24.1 | 0.00 | 0.00 | 0.00 | 53 | 1008.5 |
| 20260503221508 | 11 | 240 | 14.5 | 24.1 | 0.00 | 0.00 | 0.00 | 51 | 1008.5 |
| 20260503221225 | 11 | 259 | 12.9 | 20.9 | 0.00 | 0.00 | 0.00 | 53 | 1008.7 |
| 20260503220455 | 11 | 252 | 16.1 | 25.7 | 0.00 | 0.00 | 0.00 | 52 | 1008.6 |
| 20260503220214 | 11 | 252 | 17.7 | 25.7 | 0.00 | 0.00 | 0.00 | 52 | 1008.6 |
| 20260503215454 | 11 | 250 | 17.7 | 24.1 | 0.00 | 0.00 | 0.00 | 52 | 1008.7 |
| 20260503214953 | 11 | 264 | 17.7 | 25.7 | 0.00 | 0.00 | 0.00 | 54 | 1008.9 |
| 20260503214453 | 11 | 262 | 14.5 | 25.7 | 0.00 | 0.00 | 0.00 | 51 | 1008.7 |
| 20260503213953 | 11 | 250 | 14.5 | 29.0 | 0.00 | 0.00 | 0.00 | 53 | 1008.7 |
| 20260503213453 | 11 | 294 | 19.3 | 30.6 | 0.00 | 0.00 | 0.00 | 51 | 1008.9 |
| 20260503212953 | 11 | 244 | 19.3 | 30.6 | 0.00 | 0.00 | 0.00 | 53 | 1008.7 |
| 20260503212453 | 11 | 274 | 20.9 | 38.6 | 0.00 | 0.00 | 0.00 | 55 | 1008.9 |
| 20260503211953 | 11 | 252 | 22.5 | 38.6 | 0.00 | 0.00 | 0.00 | 50 | 1008.7 |
| 20260503211453 | 11 | 261 | 20.9 | 30.6 | 0.00 | 0.00 | 0.00 | 52 | 1008.7 |
| 20260503211210 | 11 | 250 | 19.3 | 29.0 | 0.00 | 0.00 | 0.00 | 52 | 1008.6 |
| 20260503210454 | 11 | 292 | 19.3 | 29.0 | 0.00 | 0.00 | 0.00 | 54 | 1008.7 |
| 20260503210435 | 11 | 292 | 17.7 | 29.0 | 0.00 | 0.00 | 0.00 | 55 | 1008.7 |
| 20260503205453 | 10 | 275 | 17.7 | 29.0 | 0.00 | 0.00 | 0.00 | 56 | 1008.9 |
| 20260503204954 | 10 | 256 | 19.3 | 33.8 | 0.00 | 0.00 | 0.00 | 54 | 1009.9 |
| 20260503204454 | 10 | 269 | 20.9 | 33.8 | 0.00 | 0.00 | 0.00 | 55 | 1009.9 |
| 20260503203954 | 10 | 274 | 22.5 | 38.6 | 0.00 | 0.00 | 0.00 | 54 | 1009.9 |
| 20260503203452 | 10 | 275 | 20.9 | 38.6 | 0.00 | 0.00 | 0.00 | 54 | 1010.0 |
| 20260503202953 | 10 | 290 | 20.9 | 33.8 | 0.00 | 0.00 | 0.00 | 58 | 1010.2 |
| 20260503202450 | 10 | 275 | 22.5 | 38.6 | 0.00 | 0.00 | 0.00 | 54 | 1010.0 |
| 20260503201949 | 10 | 291 | 22.5 | 38.6 | 0.00 | 0.00 | 0.00 | 53 | 1010.1 |
| 20260503201449 | 10 | 256 | 16.1 | 29.0 | 0.00 | 0.00 | 0.00 | 53 | 1010.1 |
| 20260503200950 | 10 | 282 | 17.7 | 33.8 | 0.00 | 0.00 | 0.00 | 55 | 1010.2 |
| 20260503200449 | 11 | 284 | 22.5 | 37.0 | 0.00 | 0.00 | 0.00 | 53 | 1010.3 |
| 20260503195948 | 11 | 296 | 22.5 | 37.0 | 0.00 | 0.00 | 0.00 | 55 | 1010.4 |
| 20260503195450 | 11 | 272 | 19.3 | 29.0 | 0.00 | 0.00 | 0.00 | 57 | 1010.4 |
| 20260503194948 | 11 | 255 | 19.3 | 30.6 | 0.00 | 0.00 | 0.00 | 58 | 1010.5 |
| 20260503194449 | 10 | 282 | 19.3 | 30.6 | 0.00 | 0.00 | 0.00 | 54 | 1010.5 |
| 20260503193949 | 10 | 289 | 17.7 | 30.6 | 0.00 | 0.00 | 0.00 | 57 | 1010.5 |
| 20260503193449 | 10 | 256 | 17.7 | 27.4 | 0.00 | 0.00 | 0.00 | 55 | 1010.6 |
| 20260503192949 | 10 | 284 | 17.7 | 29.0 | 0.00 | 0.00 | 0.00 | 55 | 1010.6 |
| 20260503192450 | 10 | 315 | 19.3 | 29.0 | 0.00 | 0.00 | 0.00 | 54 | 1010.7 |
| 20260503191950 | 10 | 276 | 22.5 | 33.8 | 0.00 | 0.00 | 0.00 | 54 | 1010.8 |
| 20260503191712 | 10 | 267 | 22.5 | 35.4 | 0.00 | 0.00 | 0.00 | 54 | 1010.8 |
| 20260503190950 | 10 | 276 | 24.1 | 40.2 | 0.00 | 0.00 | 0.00 | 55 | 1010.7 |
| 20260503190449 | 10 | 271 | 24.1 | 40.2 | 0.00 | 0.00 | 0.00 | 53 | 1010.9 |
| 20260503185948 | 11 | 313 | 17.7 | 35.4 | 0.00 | 0.00 | 0.00 | 50 | 1010.9 |
| 20260503185449 | 11 | 325 | 14.5 | 29.0 | 0.00 | 0.00 | 0.00 | 55 | 1010.9 |
| 20260503184950 | 11 | 294 | 17.7 | 29.0 | 0.00 | 0.00 | 0.00 | 52 | 1011.3 |
| 20260503184448 | 10 | 329 | 19.3 | 32.2 | 0.00 | 0.00 | 0.00 | 54 | 1011.1 |
| 20260503183949 | 10 | 273 | 22.5 | 37.0 | 0.00 | 0.00 | 0.00 | 55 | 1011.3 |
| 20260503183451 | 10 | 290 | 24.1 | 37.0 | 0.00 | 0.00 | 0.00 | 55 | 1011.0 |
| 20260503183211 | 9 | 291 | 24.1 | 33.8 | 0.00 | 0.00 | 0.00 | 54 | 1011.0 |
| 20260503182447 | 9 | 264 | 22.5 | 35.4 | 0.00 | 0.00 | 0.00 | 56 | 1011.1 |
| 20260503182207 | 9 | 277 | 17.7 | 35.4 | 0.00 | 0.00 | 0.00 | 54 | 1011.1 |
| 20260503181705 | 10 | 233 | 16.1 | 25.7 | 0.00 | 0.00 | 0.00 | 51 | 1011.4 |
| 20260503180942 | 10 | 288 | 19.3 | 32.2 | 0.00 | 0.00 | 0.00 | 54 | 1011.5 |
| 20260503180444 | 10 | 296 | 19.3 | 32.2 | 0.00 | 0.00 | 0.00 | 53 | 1011.6 |
| 20260503175944 | 10 | 290 | 17.7 | 32.2 | 0.00 | 0.00 | 0.00 | 54 | 1011.6 |
| 20260503175711 | 10 | 277 | 17.7 | 33.8 | 0.00 | 0.00 | 0.00 | 51 | 1011.5 |
| 20260503174937 | 11 | 355 | 19.3 | 33.8 | 0.00 | 0.00 | 0.00 | 57 | 1011.8 |
| 20260503174438 | 10 | 286 | 17.7 | 32.2 | 0.00 | 0.00 | 0.00 | 55 | 1011.7 |
| 20260503174153 | 10 | 263 | 16.1 | 32.2 | 0.00 | 0.00 | 0.00 | 49 | 1011.7 |
| 20260503173656 | 10 | 328 | 17.7 | 25.7 | 0.00 | 0.00 | 0.00 | 55 | 1011.7 |
| 20260503172933 | 10 | 280 | 19.3 | 32.2 | 0.00 | 0.00 | 0.00 | 53 | 1011.8 |
| 20260503172656 | 10 | 259 | 17.7 | 32.2 | 0.00 | 0.00 | 0.00 | 55 | 1011.7 |
| 20260503171934 | 9 | 277 | 16.1 | 29.0 | 0.00 | 0.00 | 0.00 | 57 | 1011.6 |
| 20260503171432 | 9 | 260 | 16.1 | 29.0 | 0.00 | 0.00 | 0.00 | 54 | 1011.6 |
| 20260503170930 | 9 | 306 | 16.1 | 29.0 | 0.00 | 0.00 | 0.00 | 56 | 1011.8 |
| 20260503170430 | 8 | 246 | 16.1 | 30.6 | 0.00 | 0.00 | 0.00 | 56 | 1011.7 |
| 20260503170159 | 8 | 321 | 14.5 | 32.2 | 0.00 | 0.00 | 0.00 | 59 | 1011.7 |
| 20260503150921 | 6 | 290 | 19.3 | 37.0 | 0.00 | 0.00 | 0.00 | 57 | 1012.6 |
| 20260503150421 | 6 | 273 | 17.7 | 35.4 | 0.00 | 0.00 | 0.00 | 56 | 1012.7 |
| 20260503131400 | 4 | 293 | 19.3 | 38.6 | 0.00 | 0.00 | 0.00 | 61 | 1012.0 |
| 20260503130901 | 4 | 288 | 20.9 | 38.6 | 0.00 | 0.00 | 0.00 | 64 | 1012.1 |
| 20260503130400 | 4 | 296 | 19.3 | 38.6 | 0.00 | 0.00 | 0.00 | 64 | 1012.0 |
| 20260503110334 | 1 | 282 | 8.0 | 12.9 | 0.00 | 0.00 | 0.00 | 83 | 1011.1 |
| 20260503081209 | 1 | 286 | 4.8 | 8.0 | 0.00 | 0.00 | 0.00 | 82 | 1010.7 |
| 20260503080708 | 1 | 297 | 3.2 | 8.0 | 0.00 | 0.00 | 0.00 | 81 | 1010.8 |
| 20260503080211 | 1 | 301 | 3.2 | 11.3 | 0.00 | 0.00 | 0.00 | 81 | 1010.8 |
| 20260503072644 | 1 | 298 | 1.6 | 6.4 | 0.00 | 0.00 | 0.00 | 81 | 1010.8 |
| 20260503072140 | 1 | 293 | 0.0 | 4.8 | 0.00 | 0.00 | 0.00 | 81 | 1010.8 |
| 20260503071855 | 1 | 293 | 0.0 | 4.8 | 0.00 | 0.00 | 0.00 | 81 | 1010.8 |
| 20260503071136 | 1 | 290 | 1.6 | 6.4 | 0.00 | 0.00 | 0.00 | 81 | 1010.8 |
| 20260503071112 | 1 | 290 | 1.6 | 6.4 | 0.00 | 0.00 | 0.00 | 80 | 1010.9 |